Regional Weather Roundup
Issued by NWS Charleston, SC

Home | Current Version | Previous Version | Text Only | Print | Product List | Glossary On
Versions: 1 2 3 4 5 6 7 8 9 10 11 12 13 14 15 16 17 18 19 20 21 22 23 24 25 26 27 28 29 30 31 32 33 34 35 36 37 38 39 40 41 42 43 44 45 46 47 48 49 50
000
ASUS42 KCHS 200927
RWRCHS

Regional Weather Roundup
National Weather Service Charleston SC
500 AM EDT FRI APR 20 2018

NOTE: "fair" indicates few or no clouds below 12,000 feet with no
significant weather and/or obstructions to visibility.

Not all stations are quality controlled. Use data with caution,
especially dewpoint observations.

SCZ027-030-031-034>040-042>050-201000-
...Southeast South Carolina...

CITY           SKY/WX    TMP DP  RH WIND       PRES   REMARKS
N Charleston   FAIR      50  30  46 NE14G22   30.22R
Waterfront Prk   N/A     54  38  54 N17       30.05R
Mount Pleasant FAIR      48  32  53 N8G17     30.23R
Johns Island   PTSUNNY   50  32  50 N14       30.21R
Pinopolis        N/A     52  36  54 NE17      30.14R
Moncks Corner  FAIR      48  27  43 NE15G21   30.24R
Summerville    FAIR      46  32  57 N7        30.25R
Beaufort MCAS  FAIR      52  36  54 N13G25    30.20R
Beaufort Arpt  FAIR      52  36  54 NE18G28   30.21R
Hilton Head Is CLOUDY    55  36  47 NE21      30.20R
Walterboro     FAIR      48  32  53 N6        30.24R
Allendale      FAIR      48  28  46 NE10      30.23R

...Southern Midlands and Pee Dee...

CITY           SKY/WX    TMP DP  RH WIND       PRES   REMARKS
Georgetown     FAIR      46  30  53 N14G20    30.24R
Kingstree      FAIR      45  28  53 N6        30.26R
Orangeburg     FAIR      47  29  49 NE12      30.25R
Barnwell       CLOUDY    46  28  49 NE12      30.25R
Aiken          FAIR      45  27  49 NE14G21   30.28R
Manning        FAIR      41  28  60 NE7       30.26R
Columbia       FAIR      48  29  47 N7        30.27R
Sumter         FAIR      44  28  54 N9        30.24R
Florence       FAIR      44  30  57 N9        30.26R
Myrtle Beach   FAIR      47  31  53 N15       30.24R
N Myrtle Beach FAIR      47  31  53 N13       30.22R

$$

GAZ063-065-086>088-099>101-113>116-118-119-134>141-150-201000-
...Southeast Georgia...

CITY           SKY/WX    TMP DP  RH WIND       PRES   REMARKS
Savannah Arpt  CLOUDY    55  34  45 NE12      30.19R
Hunter AAF     CLOUDY    57  34  43 NE9       30.16R
Fort Stewart     N/A     57  34  42 NE12      30.15R
Statesboro     FAIR      53  26  35 NE8G20    30.21R
Sylvania       FAIR      52  34  50 NE12      30.23R
Claxton        FAIR      55  34  45 N13G18    30.19R

...CSRA, Central and far Southeast Georgia...

CITY           SKY/WX    TMP DP  RH WIND       PRES   REMARKS
Thomson        FAIR      47  28  45 SE13      30.29R
Augusta-Bush   FAIR      49  26  41 NE17G23   30.24R
Augusta-Daniel FAIR      50  26  39 NE9       30.24R
Swainsboro     FAIR      52  32  46 E14G24    30.21R
Vidalia        FAIR      54  34  47 NE14G22   30.18R
Eastman        FAIR      51  30  44 NE6       30.21R
Hazlehurst     FAIR      53  38  56 NE6       30.16R
Alma           FAIR      53  40  61 N5        30.14S
Waycross       MOCLDY    54  41  62 N6        30.15R
Jesup          PTSUNNY   57  39  51 NE7       30.15
Baxley         CLOUDY    54  36  50 NE12      30.16R
Brunswick      FAIR      59  43  55 NE14      30.15R
Saint Simons   FAIR      62  47  57 NE18G28   30.13R

$$

SCZ027-028-034-036>038-045-046-048>050-GAZ119-141-201000-
...Lake and Supplemental Coastal Observations...

STATION/POSITION TIME  TEMP    WIND        PRES    WAVE   SWELL
                       AIR SEA DIR/SP/G            HT/PER HT/PER/DIR
                 (UTC) (F)     (DEG/KT/KT) (MB)    (FT/S) (FT/S/D)
Winyah Bay       0845   49      20/  7     1023.0S
Lake Murray      0820   47      30/  5/  9 1024.0
ACE Basin NERRS  0845   53     350/  6       N/A
Fort Pulaski     0900   57 66   40/ 16/ 20 1022.2
Sapelo Island    0900   59      40/ 13     1021.0

$$

ANZ835-935-AMZ111-154-330-350-352-354-370-450-454-472-201000-
...C-MAN and Buoy Observations...

STATION/POSITION TIME  TEMP    WIND        PRES    WAVE   SWELL
                       AIR SEA DIR/SP/G            HT/PER HT/PER/DIR
                 (UTC) (F)     (DEG/KT/KT) (MB)    (FT/S) (FT/S/D)
Buoy 41004       0910   57 67   20/ 25/ 31 1021.8
Buoy 41008       0850   62 65   50/ 25/ 29 1019.7R   5/ 5
Folly Beach CMAN 0900   53      10/ 17/ 22 1023.2R
Capers Nearshore 0908   53 63   30/ 21/ 29 1022.8R
Fripp Nearshore  0908   56 63   40/ 19/ 27 1021.7R


STATION/POSITION TIME  TEMP    WIND        PRES    WAVE   SWELL
                       AIR SEA DIR/SP/G            HT/PER HT/PER/DIR
                 (UTC) (F)     (DEG/KT/KT) (MB)    (FT/S) (FT/S/D)
5E St. Marys GA  0900      66                N/A     3/ 4
Frying Pan Buoy  0910   55 64   20/ 23/ 31 1022.1
Buoy 41025       0910   51 67  360/ 23/ 33 1023.1
Cape Lookout NC  0900           10/ 18/ 22 1023.5R
Buoy 41002       0910   69 71   30/ 19/ 25 1017.5
Buoy 41010       0910   74 74  180/ 14/ 16 1017.9
St Augustine FL  0900   68 67  360/ 23/ 26 1018.6R


$$



USA.gov is the U.S. government's official web portal to all federal, state and local government web resources and services.